| time (UTC) | temp F | wind direction | speed MPH | gust MPH | rain 1hr in | rain 24hr in | rain mn in | humidity % | barometer mb |
| 20260507060043 | 59 | 220 | 7.0 | 0.0 | 0.00 | 0.00 | 0.00 | 58 | 1018.0 |
| 20260507053043 | 57 | 210 | 7.0 | 0.0 | 0.00 | 0.00 | 0.00 | 62 | 1018.0 |
| 20260507043045 | 53 | 220 | 7.0 | 0.0 | 0.00 | 0.00 | 0.00 | 71 | 1017.0 |
| 20260507040044 | 51 | 210 | 2.0 | 0.0 | 0.00 | 0.00 | 0.00 | 76 | 1017.0 |
| 20260507033044 | 51 | 210 | 2.0 | 0.0 | 0.00 | 0.00 | 0.00 | 76 | 1017.0 |
| 20260507030044 | 51 | 230 | 2.0 | 0.0 | 0.00 | 0.00 | 0.00 | 71 | 1016.0 |
| 20260507023045 | 51 | 230 | 2.0 | 0.0 | 0.00 | 0.00 | 0.00 | 71 | 1016.0 |
| 20260507020043 | 50 | 240 | 7.0 | 0.0 | 0.00 | 0.00 | 0.00 | 76 | 1016.0 |
| 20260507013044 | 50 | 240 | 7.0 | 0.0 | 0.00 | 0.00 | 0.00 | 76 | 1016.0 |
| 20260507010043 | 50 | 240 | 4.0 | 0.0 | 0.00 | 0.00 | 0.00 | 81 | 1016.0 |
| 20260507003045 | 50 | 240 | 4.0 | 0.0 | 0.00 | 0.00 | 0.00 | 81 | 1016.0 |
| 20260506233045 | 46 | 240 | 4.0 | 0.0 | 0.00 | 0.00 | 0.00 | 87 | 1015.0 |
| 20260506230044 | 48 | 230 | 2.0 | 0.0 | 0.00 | 0.00 | 0.00 | 81 | 1015.0 |
| 20260506223044 | 48 | 230 | 2.0 | 0.0 | 0.00 | 0.00 | 0.00 | 81 | 1015.0 |
| 20260506220046 | 48 | 0 | 0.0 | 0.0 | 0.00 | 0.00 | 0.00 | 87 | 1015.0 |
| 20260506213045 | 48 | 0 | 0.0 | 0.0 | 0.00 | 0.00 | 0.00 | 87 | 1015.0 |
| 20260506210045 | 53 | 210 | 4.0 | 0.0 | 0.00 | 0.00 | 0.00 | 76 | 1015.0 |
| 20260506203046 | 53 | 210 | 4.0 | 0.0 | 0.00 | 0.00 | 0.00 | 76 | 1015.0 |
| 20260506200047 | 53 | 200 | 4.0 | 0.0 | 0.00 | 0.00 | 0.00 | 76 | 1016.0 |
| 20260506193045 | 53 | 200 | 4.0 | 0.0 | 0.00 | 0.00 | 0.00 | 76 | 1016.0 |
| 20260506190045 | 53 | 270 | 7.0 | 0.0 | 0.00 | 0.00 | 0.00 | 81 | 1015.0 |
| 20260506183045 | 53 | 270 | 7.0 | 0.0 | 0.00 | 0.00 | 0.00 | 81 | 1015.0 |
| 20260506173045 | 57 | 220 | 7.0 | 0.0 | 0.00 | 0.00 | 0.00 | 67 | 1015.0 |
| 20260506170045 | 57 | 220 | 7.0 | 0.0 | 0.00 | 0.00 | 0.00 | 71 | 1014.0 |
| 20260506163046 | 57 | 220 | 7.0 | 0.0 | 0.00 | 0.00 | 0.00 | 71 | 1014.0 |
| 20260506153046 | 60 | 220 | 7.0 | 0.0 | 0.00 | 0.00 | 0.00 | 58 | 1014.0 |
| 20260506150045 | 60 | 210 | 4.0 | 0.0 | 0.00 | 0.00 | 0.00 | 58 | 1014.0 |
| 20260506143045 | 60 | 260 | 4.0 | 0.0 | 0.00 | 0.00 | 0.00 | 63 | 1014.0 |
| 20260506140046 | 60 | 270 | 4.0 | 0.0 | 0.00 | 0.00 | 0.00 | 58 | 1014.0 |
| 20260506133046 | 60 | 230 | 2.0 | 0.0 | 0.00 | 0.00 | 0.00 | 58 | 1014.0 |
| 20260506130045 | 60 | 330 | 2.0 | 0.0 | 0.00 | 0.00 | 0.00 | 58 | 1014.0 |
| 20260506123044 | 60 | 330 | 2.0 | 0.0 | 0.00 | 0.00 | 0.00 | 58 | 1014.0 |
| 20260506120045 | 60 | 340 | 4.0 | 0.0 | 0.00 | 0.00 | 0.00 | 58 | 1014.0 |
| 20260506113045 | 60 | 340 | 7.0 | 0.0 | 0.00 | 0.00 | 0.00 | 58 | 1014.0 |
| 20260506110045 | 60 | 340 | 4.0 | 0.0 | 0.00 | 0.00 | 0.00 | 58 | 1014.0 |
| 20260506103045 | 60 | 350 | 9.0 | 0.0 | 0.00 | 0.00 | 0.00 | 58 | 1014.0 |
| 20260506100047 | 60 | 330 | 4.0 | 0.0 | 0.00 | 0.00 | 0.00 | 58 | 1014.0 |
| 20260506093046 | 60 | 340 | 9.0 | 0.0 | 0.00 | 0.00 | 0.00 | 58 | 1014.0 |
| 20260506090044 | 59 | 330 | 4.0 | 0.0 | 0.00 | 0.00 | 0.00 | 62 | 1014.0 |
| 20260506083045 | 59 | 350 | 7.0 | 0.0 | 0.00 | 0.00 | 0.00 | 62 | 1014.0 |